Tracking 28790 objects as of 19-Apr-2024
HD Live streaming from Space Station
objects crossing your sky now

FENGYUN 1C DEB

Track FENGYUN 1C DEB now!
10-day predictions


NORAD ID: 29961
Int'l Code: 1999-025KK
Perigee: 761.0 km
Apogee: 868.5 km
Inclination: 99.0 °
Period: 101.0 minutes
Semi major axis: 7185 km
RCS: 0.1067 m2 (medium)
Launch date: May 10, 1999
Source: People's Republic of China (PRC)
Launch site: Taiyaun Space Center, China (TSC)

Note: This is SATELLITE DEBRIS
Your satellite tracking list
Your tracking list is empty




NASA's NSSDC Master Catalog

Two Line Element Set (TLE):
1 29961U 99025KK  24110.19832480  .00000938  00000-0  40708-3 0  9997
2 29961  99.0306 336.3861 0074799 242.0401 117.3192 14.25252699897424
Source of the keplerian elements: AFSPC